Tracking 22779 objects as of 13-Apr-2021
HD Live streaming from Space Station
objects crossing your sky now

NAVSTAR 77 (USA 289)

Track NAVSTAR 77 (USA 289) now!
NAVSTAR 77 (USA 289) is classified as:


NORAD ID: 43873
Int'l Code: 2018-109A
Perigee: 20,157.3 km
Apogee: 20,223.2 km
Inclination: 55.0 °
Period: 718.0 minutes
Semi major axis: 26561 km
RCS: Unknown
Launch date: December 23, 2018
Source: United States (US)
Launch site: AIR FORCE EASTERN TEST RANGE (AFETR)
PRN: 4
aabbcc
Your satellite tracking list
Your tracking list is empty




NASA's NSSDC Master Catalog

Two Line Element Set (TLE):
1 43873U 18109A   21102.40409066  .00000037  00000-0  00000-0 0  9999
2 43873  55.0264 166.9041 0012417 201.2557 163.4279  2.00553395 17139
Source of the keplerian elements: AFSPC